Retour au catalogue

FENGYUN 1C DEB

ActifPO
NORAD 31919·DEBRIS·🇨🇳 China

Lancé May 10, 1999 depuis Taiyuan Satellite Launch Center

Loading…

Prochains Passages (prochaines 24 heures)

TLE

FraisSource: Space-Track

Époque: Sep 11, 2026, 05:18 UTC

1 31919U 99025CLW 26254.22119756  .00000715  00000-0  20056-3 0  9999
2 31919  99.1357  62.1265 0102293 117.5240  57.3142 14.46453279 10208

Suivez FENGYUN 1C DEB en temps réel avec AllMySat

Download on the App Store